Voltar ao catálogo

STARLINK-5049

AtivoComunicaçõesVLEO
NORAD 57246·PAYLOAD·🇺🇸 United States

Lançado Jul 7, 2023 de Vandenberg Space Force Base

Loading…

Próximas Passagens (próximas 24 horas)

TLE

AtualizadoSource: CelesTrak SupGP

Época: Sep 14, 2026, 20:38 UTC

1 57246C 23094AE  26257.86020833  .00054100  00000+0  19596-2 0  2572
2 57246  43.0038  31.1012 0002187 278.9016 182.3633 15.27548173    13

Acompanhe STARLINK-5049 em tempo real com AllMySat

Download on the App Store